Tracking 27188 objects as of 1-Apr-2023
HD Live streaming from Space Station
objects crossing your sky now

FENGYUN 1C DEB

Track FENGYUN 1C DEB now!
10-day predictions


NORAD ID: 37067
Int'l Code: 1999-025EFB
Perigee: 830.1 km
Apogee: 1,104.7 km
Inclination: 99.6 °
Period: 104.3 minutes
Semi major axis: 7338 km
RCS: 0.001 m2 (small)
Launch date: May 10, 1999
Source: People's Republic of China (PRC)
Launch site: Taiyaun Space Center, China (TSC)

Note: This is SATELLITE DEBRIS
Your satellite tracking list
Your tracking list is empty




NASA's NSSDC Master Catalog

Two Line Element Set (TLE):
1 37067U 99025EFB 23087.97288261  .00006818  00000-0  56865-2 0  9996
2 37067  99.5549 351.8316 0187138 234.9258 123.4220 13.81017265436623
Source of the keplerian elements: AFSPC